GW4538 Weather Reports


time (UTC)temp
F
wind
direction
speed
knots
gust
knots
rain 1hr
in
rain 24hr
in
rain mn
in
humidity
%
barometer
mb
20260508023843 0 354 0.0 0.0 0.00 0.04 0.04 1016.5
20260508023340 0 28 0.0 0.9 0.00 0.04 0.04 1016.5
20260508022837 0 17 0.0 0.0 0.00 0.04 0.04 1016.6
20260508022332 0 119 1.7 1.7 0.00 0.04 0.04 1016.5
20260508021830 0 54 0.9 1.7 0.00 0.04 0.04 1016.6
20260508021325 0 225 0.9 1.7 0.00 0.04 0.04 1016.7
20260508020821 0 94 1.7 1.7 0.00 0.04 0.04 1016.6
20260508020319 0 52 0.9 1.7 0.00 0.04 0.04 1016.5
20260508015816 0 68 0.9 1.7 0.00 0.04 0.04 1016.6
20260508015314 0 54 0.9 0.9 0.00 0.04 0.04 1016.5
20260508014810 0 21 0.0 0.0 0.00 0.04 0.04 1016.5
20260508014308 0 74 1.7 1.7 0.00 0.04 0.04 1016.5
20260508013803 0 102 1.7 1.7 0.00 0.04 0.04 1016.4
20260508013259 0 78 3.5 3.5 0.00 0.04 0.04 1016.4
20260508012757 0 34 1.7 1.7 0.00 0.04 0.04 1016.6
20260508012254 0 55 2.6 3.5 0.00 0.04 0.04 1016.3
20260508011752 0 75 0.9 1.7 0.00 0.04 0.04 1016.4
20260508011249 0 80 4.3 5.2 0.00 0.04 0.04 1016.4
20260508010746 0 71 2.6 2.6 0.00 0.04 0.04 1016.2
20260508010244 0 91 1.7 2.6 0.00 0.04 0.04 1016.3
20260508005741 0 88 3.5 5.2 0.00 0.04 0.04 1016.2
20260508005237 0 83 5.2 7.0 0.00 0.04 0.04 1016.2
20260508004733 0 80 5.2 7.0 0.00 0.04 0.04 1016.3
20260508004229 0 116 1.7 3.5 0.00 0.04 0.04 1016.3
20260508003726 0 94 1.7 2.6 0.00 0.04 0.04 1016.0
20260508003224 0 123 0.9 1.7 0.00 0.04 0.04 1016.0
20260508002720 0 140 5.2 5.2 0.00 0.04 0.04 1016.0
20260508002218 0 175 2.6 2.6 0.00 0.04 0.04 1015.8
20260508001713 0 157 3.5 5.2 0.00 0.04 0.04 1015.9
20260508001209 0 111 2.6 3.5 0.00 0.04 0.04 1015.8
20260508000705 0 79 2.6 2.6 0.00 0.04 0.04 1015.8
20260508000204 0 31 1.7 2.6 0.00 0.04 0.04 1015.7
20260507235659 0 106 2.6 3.5 0.00 0.04 0.04 1015.6
20260507235156 0 124 3.5 5.2 0.00 0.04 0.04 1015.7
20260507234653 0 86 2.6 2.6 0.00 0.04 0.04 1015.8
20260507234149 0 127 3.5 5.2 0.00 0.04 0.04 1015.7
20260507233647 0 56 3.5 5.2 0.00 0.04 0.04 1015.5
20260507233145 0 133 5.2 7.0 0.00 0.04 0.04 1015.5
20260507232642 0 179 2.6 3.5 0.00 0.04 0.04 1015.4
20260507232139 0 67 0.9 0.9 0.00 0.04 0.04 1015.4
20260507231635 0 58 1.7 2.6 0.00 0.04 0.04 1015.3
20260507231132 0 120 2.6 3.5 0.00 0.04 0.04 1015.1
20260507230628 0 57 1.7 1.7 0.00 0.04 0.04 1014.9
20260507230126 0 100 2.6 5.2 0.00 0.04 0.04 1014.7
20260507225620 0 80 3.5 5.2 0.00 0.04 0.04 1014.9
20260507225117 0 86 4.3 5.2 0.00 0.04 0.04 1014.7
20260507224613 0 155 4.3 5.2 0.00 0.04 0.04 1014.7
20260507224110 0 134 2.6 2.6 0.00 0.04 0.04 1014.7
20260507223606 0 103 2.6 3.5 0.00 0.04 0.04 1014.7
20260507223103 0 55 5.2 6.1 0.00 0.04 0.04 1014.7
20260507222600 0 130 4.3 6.1 0.00 0.04 0.04 1014.7
20260507222056 0 193 3.5 5.2 0.00 0.04 0.04 1014.7
20260507221552 0 184 2.6 3.5 0.00 0.04 0.04 1014.6
20260507221049 0 129 3.5 5.2 0.00 0.04 0.04 1014.7
20260507220547 0 326 5.2 7.0 0.00 0.04 0.04 1014.6
20260507220044 0 101 3.5 6.1 0.00 0.04 0.04 1014.6
20260507215540 0 173 4.3 6.1 0.00 0.04 0.04 1014.5
20260507215038 0 171 4.3 5.2 0.00 0.04 0.04 1014.3
20260507214535 0 78 5.2 7.0 0.00 0.04 0.04 1014.2
20260507214031 0 107 7.8 9.6 0.00 0.04 0.04 1014.2
20260507213527 0 30 3.5 5.2 0.00 0.04 0.04 1014.2
20260507213025 0 120 7.0 8.7 0.00 0.04 0.04 1014.2
20260507212520 0 133 7.0 7.8 0.00 0.04 0.04 1014.0
20260507212012 0 159 3.5 5.2 0.00 0.04 0.04 1014.0
20260507211509 0 137 7.0 8.7 0.00 0.04 0.04 1013.8
20260507211005 0 160 5.2 6.1 0.00 0.04 0.04 1014.0
20260507210502 0 135 3.5 5.2 0.00 0.04 0.04 1014.2
20260507205959 0 106 3.5 5.2 0.00 0.04 0.04 1014.1
20260507205456 0 80 5.2 7.0 0.00 0.04 0.04 1014.1
20260507204952 0 186 7.8 9.6 0.00 0.04 0.04 1014.0
20260507204448 0 153 7.8 9.6 0.00 0.04 0.04 1014.0
20260507203945 0 89 7.0 8.7 0.00 0.04 0.04 1013.8
20260507203443 0 91 3.5 7.0 0.00 0.04 0.04 1014.1
20260507202939 0 156 6.1 7.8 0.00 0.04 0.04 1013.8
20260507202436 0 65 4.3 7.0 0.00 0.04 0.04 1013.9
20260507201932 0 113 5.2 7.0 0.00 0.04 0.04 1014.0
20260507201432 0 96 7.0 14.8 0.00 0.04 0.04 1014.0
20260507200929 0 157 5.2 7.8 0.00 0.04 0.04 1014.0
20260507200425 0 62 7.0 11.3 0.00 0.04 0.04 1013.9
20260507195921 0 111 9.6 12.2 0.00 0.04 0.04 1014.0
20260507195419 0 80 3.5 5.2 0.00 0.04 0.04 1013.9
20260507194916 0 177 7.0 8.7 0.00 0.04 0.04 1013.7
20260507194412 0 52 7.0 7.8 0.00 0.04 0.04 1013.9
20260507193908 0 95 7.8 11.3 0.00 0.04 0.04 1014.4
20260507193406 0 185 7.0 8.7 0.00 0.04 0.04 1014.3
20260507192902 0 79 5.2 7.8 0.00 0.04 0.04 1014.1
20260507192358 0 163 5.2 7.0 0.00 0.04 0.04 1014.1
20260507191855 0 104 6.1 8.7 0.00 0.04 0.04 1014.2
20260507191351 0 97 11.3 12.2 0.00 0.04 0.04 1014.2
20260507190848 0 173 13.0 15.6 0.00 0.04 0.04 1014.3
20260507190346 0 244 6.1 8.7 0.00 0.04 0.04 1014.4
20260507185845 0 171 7.8 9.6 0.00 0.04 0.04 1014.5
20260507185342 0 112 7.8 9.6 0.00 0.04 0.04 1014.4
20260507184838 0 142 5.2 6.1 0.00 0.04 0.04 1014.4
20260507184336 0 133 8.7 12.2 0.00 0.04 0.04 1014.6
20260507183833 0 174 6.1 11.3 0.00 0.04 0.04 1014.5
20260507183330 0 158 4.3 7.0 0.00 0.04 0.04 1014.4
20260507182828 0 96 5.2 8.7 0.00 0.04 0.04 1014.4
20260507182323 0 154 6.1 8.7 0.00 0.04 0.04 1014.3
20260507181820 0 157 7.8 8.7 0.00 0.04 0.04 1014.5
20260507181316 0 180 5.2 6.1 0.00 0.04 0.04 1014.6
20260507180813 0 134 7.0 9.6 0.00 0.04 0.04 1014.7
20260507180309 0 137 3.5 6.1 0.00 0.04 0.04 1014.4
20260507175805 0 113 3.5 7.0 0.00 0.04 0.04 1015.0
20260507175306 0 199 6.1 7.8 0.00 0.04 0.04 1014.9
20260507174759 0 107 5.2 6.1 0.00 0.04 0.04 1014.8
20260507174257 0 160 2.6 2.6 0.00 0.04 0.04 1015.2
20260507173755 0 101 7.8 9.6 0.00 0.04 0.04 1015.1
20260507173252 0 156 4.3 7.0 0.00 0.04 0.04 1015.4
20260507172748 0 120 4.3 7.0 0.00 0.04 0.04 1015.3
20260507172245 0 179 4.3 6.1 0.00 0.04 0.04 1015.5
20260507171740 0 86 9.6 13.0 0.00 0.04 0.04 1015.7
20260507171238 0 154 5.2 7.0 0.00 0.04 0.04 1015.6
20260507170734 0 110 5.2 7.8 0.00 0.04 0.04 1015.6
20260507170231 0 116 3.5 5.2 0.00 0.04 0.04 1015.8
20260507165727 0 82 7.8 9.6 0.00 0.04 0.04 1016.0
20260507165223 0 18 4.3 6.1 0.00 0.04 0.04 1016.0
20260507164719 0 95 8.7 9.6 0.00 0.04 0.04 1015.9
20260507164217 0 107 7.8 8.7 0.00 0.04 0.04 1016.1
20260507163714 0 60 7.8 8.7 0.00 0.04 0.04 1016.2
20260507163212 0 115 9.6 13.0 0.00 0.04 0.04 1016.2
20260507162707 0 134 4.3 6.1 0.00 0.04 0.04 1016.4
20260507162203 0 158 5.2 7.8 0.00 0.04 0.04 1016.3
20260507161700 0 114 7.8 11.3 0.00 0.04 0.04 1016.5
20260507161156 0 77 7.0 12.2 0.00 0.04 0.04 1016.7
20260507160653 0 65 7.8 9.6 0.00 0.04 0.04 1016.5
20260507160144 0 139 7.0 8.7 0.00 0.04 0.04 1016.5
20260507155640 0 97 9.6 11.3 0.00 0.04 0.04 1016.7
20260507155137 0 136 3.5 6.1 0.00 0.04 0.04 1016.5
20260507154633 0 136 7.0 11.3 0.00 0.04 0.04 1016.7
20260507154131 0 88 8.7 11.3 0.00 0.04 0.04 1016.6
20260507153627 0 120 4.3 6.1 0.00 0.04 0.04 1016.6
20260507153123 0 96 4.3 6.1 0.00 0.04 0.04 1016.6
20260507152619 0 157 5.2 7.0 0.00 0.04 0.04 1016.8
20260507152110 0 85 4.3 6.1 0.00 0.04 0.04 1016.8
20260507151606 0 94 8.7 11.3 0.00 0.04 0.04 1016.8
20260507151103 0 89 7.0 11.3 0.00 0.04 0.04 1016.8
20260507150555 0 118 7.8 8.7 0.00 0.04 0.04 1016.9
20260507150051 0 131 4.3 7.8 0.00 0.04 0.04 1016.8
20260507145546 0 112 5.2 7.8 0.00 0.04 0.04 1016.8
20260507145044 0 156 9.6 11.3 0.00 0.04 0.04 1017.0
20260507144540 0 130 3.5 7.0 0.00 0.04 0.04 1017.1
20260507144038 0 82 3.5 3.5 0.00 0.04 0.04 1016.9
20260507143535 0 149 3.5 5.2 0.00 0.04 0.04 1017.2
20260507143032 0 84 6.1 7.0 0.00 0.04 0.04 1017.1
20260507142527 0 149 5.2 7.0 0.00 0.04 0.04 1017.2
20260507142024 0 73 8.7 11.3 0.00 0.04 0.04 1016.9
20260507141520 0 144 9.6 12.2 0.00 0.04 0.04 1017.4
20260507141017 0 114 5.2 6.1 0.00 0.04 0.04 1017.3
20260507140514 0 78 5.2 7.0 0.00 0.04 0.04 1017.4
20260507140012 0 128 5.2 7.0 0.00 0.04 0.04 1017.4
20260507135508 0 169 4.3 6.1 0.00 0.04 0.04 1017.3
20260507135005 0 163 6.1 8.7 0.00 0.04 0.04 1017.3
20260507134502 0 65 4.3 6.1 0.00 0.04 0.04 1017.4
20260507133958 0 107 4.3 6.1 0.00 0.04 0.04 1017.2
20260507133454 0 53 6.1 8.7 0.00 0.04 0.04 1017.0
20260507132952 0 134 3.5 5.2 0.00 0.04 0.04 1017.3
20260507132448 0 83 7.0 8.7 0.00 0.04 0.04 1017.2
20260507131945 0 98 3.5 6.1 0.00 0.04 0.04 1017.1
20260507131442 0 113 3.5 5.2 0.00 0.04 0.04 1017.1
20260507130939 0 41 6.1 7.8 0.00 0.04 0.04 1017.0
20260507130436 0 344 7.0 9.6 0.00 0.04 0.04 1017.0
20260507125935 0 141 2.6 3.5 0.00 0.04 0.04 1017.0
20260507125432 0 134 4.3 6.1 0.00 0.04 0.04 1017.0
20260507124929 0 73 3.5 5.2 0.00 0.04 0.04 1017.2
20260507124425 0 102 7.8 9.6 0.00 0.04 0.04 1016.9
20260507123924 0 176 3.5 6.1 0.00 0.04 0.04 1017.0
20260507123421 0 69 2.6 3.5 0.00 0.04 0.04 1016.8
20260507122917 0 151 2.6 2.6 0.00 0.04 0.04 1016.8
20260507122412 0 68 1.7 2.6 0.00 0.04 0.04 1016.9
20260507121909 0 72 3.5 3.5 0.00 0.04 0.04 1017.1
20260507121404 0 138 5.2 6.1 0.00 0.04 0.04 1016.7
20260507120901 0 154 1.7 1.7 0.00 0.04 0.04 1016.7
20260507120357 0 211 1.7 1.7 0.00 0.04 0.04 1016.8
20260507115854 0 140 3.5 5.2 0.00 0.04 0.04 1016.6
20260507115350 0 94 2.6 2.6 0.00 0.04 0.04 1016.4
20260507114846 0 116 3.5 3.5 0.00 0.04 0.04 1016.5
20260507114343 0 97 0.9 1.7 0.00 0.04 0.04 1016.6
20260507113840 0 70 4.3 6.1 0.00 0.04 0.04 1016.5
20260507113337 0 121 3.5 3.5 0.00 0.04 0.04 1016.2
20260507112835 0 144 1.7 2.6 0.00 0.04 0.04 1016.4
20260507112331 0 74 0.9 0.9 0.00 0.04 0.04 1016.4
20260507111829 0 102 2.6 3.5 0.00 0.04 0.04 1016.4
20260507111326 0 78 0.0 0.9 0.00 0.04 0.04 1016.3
20260507110822 0 131 1.7 3.5 0.00 0.04 0.04 1016.5
20260507110318 0 164 1.7 1.7 0.00 0.04 0.04 1016.2
20260507105815 0 48 0.0 0.0 0.00 0.04 0.04 1016.3
20260507105312 0 12 0.0 0.0 0.00 0.04 0.04 1016.2
20260507104809 0 275 0.0 0.0 0.00 0.04 0.04 1016.3
20260507104305 0 0 0.0 0.0 0.00 0.04 0.04 1016.4
20260507103801 0 14 0.0 0.0 0.00 0.04 0.04 1016.2
20260507103257 0 31 0.0 0.0 0.00 0.04 0.04 1016.1
20260507102754 0 157 0.9 0.9 0.00 0.04 0.04 1016.2
20260507102251 0 84 0.0 0.9 0.00 0.04 0.04 1015.9
20260507101747 0 37 0.0 0.0 0.00 0.04 0.04 1015.9
20260507101242 0 17 0.0 0.0 0.00 0.04 0.04 1016.1
20260507100740 0 160 1.7 1.7 0.00 0.04 0.04 1015.8
20260507100238 0 52 0.0 0.0 0.00 0.04 0.04 1015.8
20260507095735 0 104 1.7 1.7 0.00 0.04 0.04 1016.0
20260507095226 0 57 0.9 1.7 0.00 0.04 0.04 1015.8
20260507094724 0 135 0.0 0.9 0.00 0.04 0.04 1015.9
20260507094221 0 34 0.0 0.0 0.00 0.04 0.04 1016.0
20260507093717 0 357 0.0 0.0 0.00 0.04 0.04 1015.8
20260507093216 0 348 0.0 0.0 0.00 0.04 0.04 1015.8
20260507092713 0 32 0.0 0.0 0.00 0.04 0.04 1015.9
20260507092209 0 337 0.0 0.0 0.00 0.04 0.04 1015.9
20260507091706 0 315 0.0 0.0 0.00 0.04 0.04 1015.7
20260507091202 0 0 0.0 0.0 0.00 0.04 0.04 1015.7
20260507090657 0 12 0.0 0.0 0.00 0.04 0.04 1015.8
20260507090155 0 344 0.0 0.9 0.00 0.04 0.04 1015.8
20260507085652 0 358 0.0 0.0 0.00 0.04 0.04 1016.1
20260507085149 0 346 0.0 0.0 0.00 0.04 0.04 1015.8
20260507084645 0 355 0.0 0.0 0.00 0.04 0.04 1015.9
20260507084136 0 350 0.0 0.0 0.00 0.04 0.04 1015.8
20260507083633 0 9 0.0 0.0 0.00 0.04 0.04 1016.0
20260507083130 0 1 0.0 0.0 0.00 0.04 0.04 1015.8
20260507082626 0 328 0.9 0.9 0.00 0.04 0.04 1015.8
20260507082122 0 347 0.9 0.9 0.00 0.04 0.04 1016.0
20260507081619 0 357 0.0 0.0 0.00 0.04 0.04 1015.9
20260507081116 0 1 0.0 0.0 0.00 0.04 0.04 1015.6
20260507080612 0 355 0.0 0.0 0.00 0.04 0.04 1015.8
20260507080108 0 347 0.0 0.0 0.00 0.04 0.04 1015.6
20260507075603 0 357 0.0 0.0 0.00 0.04 0.04 1015.5
20260507075100 0 356 0.0 0.0 0.00 0.04 0.04 1015.6
20260507074557 0 339 0.0 0.0 0.00 0.04 0.04 1015.7
20260507074055 0 324 0.9 0.9 0.00 0.04 0.04 1015.6
20260507073551 0 352 0.0 0.0 0.00 0.04 0.04 1015.7
20260507073047 0 18 0.0 0.0 0.00 0.04 0.04 1015.9
20260507072545 0 7 0.0 0.0 0.00 0.04 0.04 1015.8
20260507072042 0 357 0.0 0.0 0.00 0.04 0.04 1016.0
20260507071539 0 23 0.0 0.0 0.00 0.04 0.04 1015.8
20260507071036 0 359 0.0 0.0 0.00 0.04 0.04 1016.0
20260507070533 0 7 0.0 0.0 0.00 0.04 0.04 1016.0
20260507070030 0 357 0.0 0.0 0.00 0.04 0.04 1016.0
20260507065526 0 0 0.0 0.0 0.00 0.04 0.04 1016.1
20260507065024 0 359 0.0 0.0 0.00 0.04 0.04 1016.1
20260507064521 0 342 0.0 0.0 0.00 0.04 0.04 1016.1
20260507064019 0 328 0.0 0.0 0.00 0.04 0.04 1016.2
20260507063516 0 352 0.0 0.0 0.00 0.04 0.04 1016.5
20260507063013 0 349 0.0 0.9 0.00 0.04 0.04 1016.2
20260507062509 0 6 0.0 0.0 0.00 0.04 0.04 1016.3
20260507062008 0 355 0.0 0.0 0.00 0.04 0.04 1016.3
20260507061505 0 352 0.0 0.0 0.00 0.04 0.04 1016.2
20260507061003 0 358 0.0 0.0 0.00 0.04 0.04 1016.5
20260507060500 0 0 0.0 0.0 0.00 0.04 0.04 1016.5
20260507055956 0 359 0.0 0.0 0.00 0.04 0.04 1016.7
20260507055451 0 356 0.0 0.0 0.00 0.04 0.04 1016.8
20260507054948 0 334 0.9 0.9 0.00 0.04 0.04 1016.7
20260507054444 0 342 0.0 0.0 0.00 0.04 0.04 1016.6
20260507053942 0 335 0.0 0.0 0.00 0.04 0.04 1016.7
20260507053439 0 304 0.0 0.0 0.00 0.04 0.04 1016.9
20260507052938 0 344 0.0 0.0 0.00 0.04 0.04 1016.9
20260507052435 0 1 0.0 0.0 0.00 0.04 0.04 1017.0
20260507051932 0 3 0.0 0.0 0.00 0.04 0.04 1017.1
20260507051429 0 334 0.0 0.0 0.00 0.04 0.04 1017.1
20260507050926 0 342 0.0 0.0 0.00 0.04 0.04 1017.5
20260507050423 0 356 0.0 0.0 0.00 0.04 0.04 1017.4
20260507045920 0 353 0.0 0.0 0.00 0.04 0.04 1017.4
20260507045416 0 2 0.0 0.0 0.00 0.04 0.04 1017.8
20260507044914 0 4 0.0 0.0 0.00 0.04 0.04 1017.9
20260507044411 0 345 0.0 0.0 0.00 0.04 0.04 1017.8
20260507043907 0 351 0.0 0.0 0.00 0.04 0.04 1017.9
20260507043403 0 333 0.0 0.0 0.00 0.04 0.04 1017.9
20260507042859 0 343 0.0 0.0 0.00 0.04 0.04 1017.8
20260507042356 0 356 0.0 0.0 0.00 0.04 0.04 1017.9
20260507041852 0 8 0.0 0.0 0.00 0.04 0.04 1018.0
20260507041349 0 35 0.0 0.0 0.12 0.04 0.04 1018.2
20260507040846 0 351 0.0 0.0 0.24 0.04 0.04 1018.2
20260507040342 0 1 0.0 0.0 0.17 0.03 0.03 1018.0
20260507035838 0 314 0.0 0.0 0.00 0.00 0.00 1018.3
20260507035334 0 261 0.0 0.0 0.00 0.00 0.00 1018.1
20260507034832 0 328 0.0 0.0 0.00 0.00 0.00 1018.3
20260507034328 0 338 0.9 0.9 0.00 0.00 0.00 1018.3
20260507033826 0 344 0.0 0.0 0.00 0.00 0.00 1018.1
20260507033324 0 275 0.0 0.0 0.00 0.00 0.00 1018.1
20260507032821 0 338 0.0 0.0 0.00 0.00 0.00 1018.2
20260507032317 0 338 0.0 0.0 0.00 0.00 0.00 1018.2
20260507031814 0 12 0.9 1.7 0.00 0.00 0.00 1018.1
20260507031311 0 315 1.7 1.7 0.00 0.00 0.00 1018.2
20260507030807 0 1 0.0 0.0 0.00 0.00 0.00 1018.3
20260507030305 0 327 0.0 0.0 0.00 0.00 0.00 1018.2
20260507025801 0 325 0.9 0.9 0.00 0.00 0.00 1018.4
20260507025259 0 326 0.9 0.9 0.00 0.00 0.00 1018.4
20260507024757 0 331 0.0 0.9 0.00 0.00 0.00 1018.3
20260507024253 0 250 0.0 0.0 0.00 0.00 0.00 1018.3